FW9637 Weather Reports


Display with metric or nautical units.
time (UTC)temp
F
wind
direction
speed
MPH
gust
MPH
rain 1hr
in
rain 24hr
in
rain mn
in
humidity
%
barometer
mb
20260506153051 62 360 2.0 8.0 0.03 0.04 0.04 87 1007.2
20260506152536 62 360 2.0 8.0 0.03 0.04 0.04 87 1007.1
20260506152036 62 360 2.0 6.0 0.04 0.04 0.04 87 1007.1
20260506151547 61 360 2.0 6.0 0.03 0.03 0.03 86 1007.3
20260506151035 61 360 2.0 5.0 0.03 0.03 0.03 87 1007.4
20260506150535 61 0 1.0 8.0 0.03 0.03 0.03 87 1007.3
20260506150054 61 360 2.0 8.0 0.03 0.03 0.03 86 1007.5
20260506145536 61 360 1.0 6.0 0.02 0.02 0.02 86 1007.5
20260506145035 61 360 2.0 6.0 0.02 0.02 0.02 86 1007.6
20260506144545 61 360 1.0 6.0 0.02 0.02 0.02 86 1007.5
20260506144035 62 360 0.0 4.0 0.01 0.01 0.01 85 1007.7
20260506143535 62 360 1.0 4.0 0.01 0.01 0.01 85 1007.8
20260506143044 62 360 2.0 4.0 0.01 0.01 0.01 84 1007.8
20260506142536 62 0 0.0 4.0 0.01 0.01 0.01 85 1007.8
20260506142036 62 360 0.0 3.0 0.00 0.00 0.00 84 1007.9
20260506141539 62 360 1.0 3.0 0.00 0.00 0.00 84 1007.8
20260506141036 62 360 1.0 4.0 0.00 0.00 0.00 83 1007.8
20260506140536 62 360 1.0 6.0 0.00 0.00 0.00 83 1007.7
20260506140050 62 0 2.0 6.0 0.00 0.00 0.00 82 1007.7
20260506135535 63 360 0.0 8.0 0.00 0.00 0.00 81 1007.9
20260506135035 63 360 2.0 8.0 0.00 0.00 0.00 80 1007.8
20260506134610 63 360 1.0 5.0 0.00 0.00 0.00 80 1007.8
20260506134035 63 360 1.0 6.0 0.00 0.00 0.00 80 1007.8
20260506133535 63 360 2.0 6.0 0.00 0.00 0.00 78 1007.8
20260506133044 64 360 2.0 6.0 0.00 0.00 0.00 77 1007.9
20260506132535 64 360 2.0 6.0 0.00 0.00 0.00 76 1007.9
20260506132035 64 360 2.0 6.0 0.00 0.00 0.00 76 1007.9
20260506131607 64 360 1.0 8.0 0.00 0.00 0.00 76 1007.8
20260506131035 64 360 2.0 8.0 0.00 0.00 0.00 76 1007.7
20260506130535 64 360 3.0 8.0 0.00 0.00 0.00 76 1007.5
20260506130047 64 360 1.0 8.0 0.00 0.00 0.00 76 1007.4
20260506125535 64 360 3.0 8.0 0.00 0.00 0.00 75 1007.4
20260506125036 64 360 1.0 9.0 0.00 0.00 0.00 75 1007.5
20260506124544 65 360 3.0 9.0 0.00 0.00 0.00 75 1007.5
20260506124037 65 360 3.0 8.0 0.00 0.00 0.00 74 1007.4
20260506123537 65 360 3.0 8.0 0.00 0.00 0.00 74 1007.3
20260506123048 64 360 2.0 6.0 0.00 0.00 0.00 75 1007.5
20260506122536 64 360 2.0 9.0 0.00 0.00 0.00 75 1007.7
20260506122036 64 360 3.0 10.0 0.00 0.00 0.00 75 1007.6
20260506121549 64 360 4.0 10.0 0.00 0.00 0.00 75 1007.6
20260506121035 64 360 3.0 8.0 0.00 0.00 0.00 76 1007.7
20260506120535 64 360 2.0 8.0 0.00 0.00 0.00 76 1007.8
20260506120047 64 360 1.0 12.0 0.00 0.00 0.00 75 1007.7
20260506115537 64 360 2.0 12.0 0.00 0.00 0.00 75 1007.7
20260506115036 64 360 3.0 8.0 0.00 0.00 0.00 75 1007.7
20260506114546 64 360 1.0 8.0 0.00 0.00 0.00 75 1007.7
20260506114036 64 360 3.0 8.0 0.00 0.00 0.00 75 1007.8
20260506113537 64 360 1.0 10.0 0.00 0.00 0.00 75 1007.8
20260506113046 64 360 3.0 10.0 0.00 0.00 0.00 75 1007.8
20260506112536 64 360 4.0 10.0 0.00 0.00 0.00 75 1007.8
20260506112035 64 360 1.0 8.0 0.00 0.00 0.00 75 1007.8
20260506111602 64 360 2.0 8.0 0.00 0.00 0.00 75 1007.7
20260506111035 64 360 3.0 8.0 0.00 0.00 0.00 75 1007.7
20260506110537 64 360 2.0 6.0 0.00 0.00 0.00 75 1007.4
20260506110045 64 360 3.0 5.0 0.00 0.00 0.00 75 1007.4
20260506105536 64 360 1.0 6.0 0.00 0.00 0.00 74 1007.4
20260506105036 64 360 2.0 11.0 0.00 0.00 0.00 74 1007.5
20260506104545 64 0 1.0 11.0 0.00 0.00 0.00 74 1007.4
20260506104035 64 360 3.0 11.0 0.00 0.00 0.00 74 1007.3
20260506103535 63 360 1.0 8.0 0.00 0.00 0.00 74 1007.4
20260506103044 63 360 1.0 8.0 0.00 0.00 0.00 74 1007.3
20260506102535 63 360 3.0 5.0 0.00 0.00 0.00 74 1007.4
20260506102037 63 360 0.0 6.0 0.00 0.00 0.00 74 1007.4
20260506101542 63 0 1.0 6.0 0.00 0.00 0.00 74 1007.5
20260506101036 63 360 1.0 5.0 0.00 0.00 0.00 74 1007.3
20260506100536 63 360 1.0 6.0 0.00 0.00 0.00 74 1007.3
20260506100049 63 0 1.0 10.0 0.00 0.00 0.00 74 1007.4
20260506095536 63 360 2.0 10.0 0.00 0.00 0.00 74 1007.3
20260506095040 63 360 1.0 6.0 0.00 0.00 0.00 73 1007.4
20260506094547 63 360 1.0 6.0 0.00 0.00 0.00 73 1007.5
20260506094039 63 360 2.0 5.0 0.00 0.00 0.00 73 1007.2
20260506093535 63 360 2.0 5.0 0.00 0.00 0.00 73 1007.1
20260506093052 63 360 1.0 6.0 0.00 0.00 0.00 72 1007.1
20260506092535 63 360 2.0 6.0 0.00 0.00 0.00 72 1007.0
20260506092037 63 360 1.0 8.0 0.00 0.00 0.00 72 1007.0
20260506091545 63 360 1.0 8.0 0.00 0.00 0.00 72 1007.3
20260506091036 63 360 1.0 9.0 0.00 0.00 0.00 72 1007.3
20260506090536 63 360 2.0 9.0 0.00 0.00 0.00 72 1007.3
20260506090044 63 360 3.0 8.0 0.00 0.00 0.00 72 1007.3
20260506085535 63 360 3.0 8.0 0.00 0.00 0.00 72 1007.4
20260506085036 63 360 1.0 8.0 0.00 0.00 0.00 72 1007.4
20260506084542 63 360 2.0 8.0 0.00 0.00 0.00 72 1007.3
20260506084036 62 360 2.0 6.0 0.00 0.00 0.00 73 1007.3
20260506083536 62 360 0.0 5.0 0.00 0.00 0.00 73 1007.4
20260506083059 62 360 2.0 5.0 0.00 0.00 0.00 74 1007.3
20260506082536 61 360 1.0 4.0 0.00 0.00 0.00 74 1007.4
20260506082035 60 0 0.0 3.0 0.00 0.00 0.00 74 1007.4
20260506081549 60 360 0.0 2.0 0.00 0.00 0.00 74 1007.5
20260506081036 60 186 0.0 2.0 0.00 0.00 0.00 74 1007.6
20260506080538 61 0 0.0 3.0 0.00 0.00 0.00 73 1007.4
20260506073049 64 0 0.0 4.0 0.00 0.00 0.00 69 1007.8
20260506072535 64 213 2.0 6.0 0.00 0.00 0.00 68 1007.8
20260506072035 64 202 1.0 7.0 0.00 0.00 0.00 68 1007.7
20260506071554 64 230 0.0 7.0 0.00 0.00 0.00 67 1007.7
20260506071035 65 210 1.0 8.0 0.00 0.00 0.00 67 1007.7
20260506070536 64 0 0.0 8.0 0.00 0.00 0.00 67 1007.8
20260506062035 64 0 0.0 6.0 0.00 0.00 0.00 66 1008.2
20260506061547 65 220 1.0 6.0 0.00 0.00 0.00 66 1008.3
20260506061035 65 0 1.0 4.0 0.00 0.00 0.00 65 1008.3
20260506060535 65 230 1.0 5.0 0.00 0.00 0.00 65 1008.3
20260506051035 67 228 2.0 9.0 0.00 0.00 0.00 59 1008.3
20260506050535 67 5 3.0 9.0 0.00 0.00 0.00 59 1008.5
20260506045036 67 208 2.0 9.0 0.00 0.00 0.00 59 1008.3
20260506044542 67 213 3.0 9.0 0.00 0.00 0.00 58 1008.3
20260506044035 67 216 2.0 9.0 0.00 0.00 0.00 58 1008.3
20260506043537 67 258 2.0 7.0 0.00 0.00 0.00 57 1008.3
20260506043043 68 190 2.0 7.0 0.00 0.00 0.00 57 1008.3
20260506042535 68 230 1.0 7.0 0.00 0.00 0.00 57 1008.3
20260506042035 68 230 3.0 7.0 0.00 0.00 0.00 57 1008.2
20260506041548 67 223 1.0 8.0 0.00 0.00 0.00 57 1008.2
20260506041034 68 0 1.0 8.0 0.00 0.00 0.00 57 1008.2
20260506040535 67 289 1.0 4.0 0.00 0.00 0.00 58 1008.2
20260506040043 67 309 1.0 4.0 0.00 0.00 0.00 58 1008.2
20260506035536 67 0 0.0 4.0 0.00 0.00 0.00 57 1008.2
20260506035037 67 0 0.0 5.0 0.00 0.00 0.00 57 1008.2
20260506034541 67 229 0.0 6.0 0.00 0.00 0.00 58 1008.2
20260506034036 67 182 1.0 6.0 0.00 0.00 0.00 58 1008.2
20260506033535 67 0 0.0 2.0 0.00 0.00 0.00 58 1008.2
20260506033046 68 281 0.0 4.0 0.00 0.00 0.00 57 1008.2
20260506032535 68 257 0.0 7.0 0.00 0.00 0.00 56 1008.2
20260506032035 68 293 0.0 7.0 0.00 0.00 0.00 56 1008.2
20260506031544 68 217 2.0 5.0 0.00 0.00 0.00 56 1008.2
20260506031035 68 265 1.0 5.0 0.00 0.00 0.00 56 1008.2
20260506030535 68 229 1.0 8.0 0.00 0.00 0.00 56 1008.2
20260506030044 68 250 0.0 8.0 0.00 0.00 0.00 56 1008.2
20260506025535 68 227 1.0 5.0 0.00 0.00 0.00 56 1008.2
20260506025035 68 211 1.0 6.0 0.00 0.00 0.00 55 1008.3
20260506024558 69 227 1.0 6.0 0.00 0.00 0.00 54 1008.3
20260506024035 69 224 2.0 6.0 0.00 0.00 0.00 54 1008.3
20260506023535 68 214 1.0 5.0 0.00 0.00 0.00 55 1008.2
20260506023051 69 212 1.0 4.0 0.00 0.00 0.00 54 1008.4
20260506022536 69 0 1.0 4.0 0.00 0.00 0.00 53 1008.3
20260506022035 69 269 1.0 6.0 0.00 0.00 0.00 53 1008.3
20260506021553 69 331 2.0 6.0 0.00 0.00 0.00 52 1008.3
20260506021036 69 0 1.0 8.0 0.00 0.00 0.00 51 1008.5
20260506020535 70 238 2.0 8.0 0.00 0.00 0.00 51 1008.1
20260506020055 70 198 1.0 6.0 0.00 0.00 0.00 50 1008.1
20260506015535 70 209 0.0 6.0 0.00 0.00 0.00 49 1008.2
20260506015035 70 179 2.0 6.0 0.00 0.00 0.00 48 1008.2
20260506014548 71 219 1.0 6.0 0.00 0.00 0.00 48 1008.0
20260506014035 71 238 2.0 8.0 0.00 0.00 0.00 47 1007.9
20260506013535 71 239 2.0 8.0 0.00 0.00 0.00 48 1007.8
20260506013047 71 241 2.0 8.0 0.00 0.00 0.00 47 1007.8
20260506012535 72 302 1.0 6.0 0.00 0.00 0.00 47 1007.7
20260506012035 72 211 1.0 11.0 0.00 0.00 0.00 46 1007.6
20260506011604 72 291 3.0 11.0 0.00 0.00 0.00 46 1007.5
20260506011036 71 223 0.0 7.0 0.00 0.00 0.00 48 1007.5
20260506010535 71 265 1.0 7.0 0.00 0.00 0.00 47 1007.4
20260506010046 71 230 1.0 8.0 0.00 0.00 0.00 47 1007.5
20260506005536 71 175 1.0 8.0 0.00 0.00 0.00 48 1007.4
20260506005036 71 188 1.0 6.0 0.00 0.00 0.00 48 1007.2
20260506004559 72 230 1.0 6.0 0.00 0.00 0.00 47 1007.3
20260506004035 72 220 2.0 7.0 0.00 0.00 0.00 46 1007.2
20260506003535 73 221 3.0 7.0 0.00 0.00 0.00 45 1007.2
20260506003045 73 223 3.0 10.0 0.00 0.00 0.00 44 1007.1
20260506002535 74 223 1.0 10.0 0.00 0.00 0.00 45 1007.0
20260506002036 74 251 3.0 10.0 0.00 0.00 0.00 44 1007.0
20260506001546 74 192 3.0 9.0 0.00 0.00 0.00 44 1007.0
20260506001035 74 205 3.0 8.0 0.00 0.00 0.00 44 1007.1
20260506000535 74 226 1.0 4.0 0.00 0.00 0.00 45 1007.0
20260506000110 74 225 2.0 5.0 0.00 0.00 0.00 44 1007.0
20260505235535 74 214 1.0 7.0 0.00 0.00 0.00 44 1007.1
20260505235038 74 207 1.0 7.0 0.00 0.00 0.00 44 1006.9
20260505234547 74 221 2.0 7.0 0.00 0.00 0.00 44 1006.9
20260505234035 75 227 3.0 7.0 0.00 0.00 0.00 43 1006.8
20260505233534 75 201 1.0 6.0 0.00 0.00 0.00 43 1006.9
20260505233041 75 214 2.0 7.0 0.00 0.00 0.00 43 1006.9
20260505232536 75 271 2.0 11.0 0.00 0.00 0.00 44 1006.8
20260505232038 75 287 2.0 11.0 0.00 0.00 0.00 43 1006.8
20260505231551 75 315 2.0 8.0 0.00 0.00 0.00 43 1006.8
20260505231034 76 227 3.0 11.0 0.00 0.00 0.00 42 1006.6
20260505230534 76 221 4.0 11.0 0.00 0.00 0.00 42 1006.6
20260505230101 76 235 4.0 10.0 0.00 0.00 0.00 41 1006.5
20260505225611 76 174 3.0 10.0 0.00 0.00 0.00 42 1006.5
20260505225037 76 244 3.0 10.0 0.00 0.00 0.00 42 1006.5
20260505224546 76 242 3.0 9.0 0.00 0.00 0.00 41 1006.4
20260505224035 76 231 1.0 8.0 0.00 0.00 0.00 42 1006.5
20260505223535 76 230 3.0 8.0 0.00 0.00 0.00 40 1006.4
20260505223043 77 204 2.0 17.0 0.00 0.00 0.00 40 1006.4
20260505222535 77 221 2.0 17.0 0.00 0.00 0.00 40 1006.2
20260505222035 77 53 4.0 17.0 0.00 0.00 0.00 39 1006.1
20260505221541 77 245 3.0 11.0 0.00 0.00 0.00 40 1006.2
20260505221036 77 227 3.0 10.0 0.00 0.00 0.00 40 1006.2
20260505220534 77 243 3.0 10.0 0.00 0.00 0.00 39 1006.1
20260505220049 78 247 3.0 17.0 0.00 0.00 0.00 40 1006.1
20260505215535 78 211 6.0 17.0 0.00 0.00 0.00 40 1005.9
20260505215035 78 232 4.0 13.0 0.00 0.00 0.00 39 1005.8
20260505214545 78 197 4.0 13.0 0.00 0.00 0.00 39 1005.9
20260505214035 78 198 4.0 12.0 0.00 0.00 0.00 39 1005.8
20260505213534 78 232 5.0 12.0 0.00 0.00 0.00 39 1005.6
20260505213043 78 296 2.0 11.0 0.00 0.00 0.00 41 1005.6
20260505212535 78 216 2.0 12.0 0.00 0.00 0.00 39 1005.8
20260505212035 79 205 4.0 12.0 0.00 0.00 0.00 39 1005.6
20260505211547 79 208 4.0 10.0 0.00 0.00 0.00 38 1005.7
20260505211035 79 248 5.0 12.0 0.00 0.00 0.00 38 1005.7
20260505210535 80 184 3.0 12.0 0.00 0.00 0.00 38 1005.6
20260505210042 80 157 2.0 6.0 0.00 0.00 0.00 36 1005.4
20260505205535 80 264 2.0 8.0 0.00 0.00 0.00 38 1005.6
20260505205036 80 204 1.0 8.0 0.00 0.00 0.00 36 1005.5
20260505204559 79 242 3.0 9.0 0.00 0.00 0.00 35 1005.6
20260505204034 80 196 3.0 9.0 0.00 0.00 0.00 32 1005.3
20260505203537 80 170 2.0 11.0 0.00 0.00 0.00 33 1005.4
20260505203055 81 270 3.0 12.0 0.00 0.00 0.00 31 1005.4
20260505202535 82 219 3.0 14.0 0.00 0.00 0.00 31 1005.3
20260505202036 83 265 4.0 14.0 0.00 0.00 0.00 29 1005.5
20260505201547 83 147 3.0 9.0 0.00 0.00 0.00 29 1005.5
20260505201035 83 248 4.0 14.0 0.00 0.00 0.00 31 1005.6
20260505200535 83 249 5.0 14.0 0.00 0.00 0.00 31 1005.6
20260505200046 83 235 5.0 12.0 0.00 0.00 0.00 30 1005.7
20260505195538 83 197 3.0 8.0 0.00 0.00 0.00 31 1005.7
20260505195035 83 260 4.0 11.0 0.00 0.00 0.00 29 1005.7
20260505194603 84 237 4.0 11.0 0.00 0.00 0.00 28 1005.8
20260505194035 84 189 3.0 11.0 0.00 0.00 0.00 29 1005.9
20260505193536 84 187 3.0 9.0 0.00 0.00 0.00 33 1005.9
20260505193047 83 266 4.0 11.0 0.00 0.00 0.00 30 1005.8
20260505192534 83 211 3.0 17.0 0.00 0.00 0.00 32 1005.9
20260505192034 82 254 7.0 17.0 0.00 0.00 0.00 33 1006.0
20260505191555 83 217 4.0 10.0 0.00 0.00 0.00 35 1006.0
20260505191035 82 251 3.0 11.0 0.00 0.00 0.00 36 1006.1
20260505190538 82 264 4.0 12.0 0.00 0.00 0.00 34 1006.2
20260505190045 83 217 3.0 12.0 0.00 0.00 0.00 37 1006.2
20260505185537 82 188 3.0 16.0 0.00 0.00 0.00 36 1006.3
20260505185034 81 211 5.0 16.0 0.00 0.00 0.00 36 1006.4
20260505184545 82 213 5.0 15.0 0.00 0.00 0.00 36 1006.5
20260505184034 81 109 4.0 12.0 0.00 0.00 0.00 37 1006.5
20260505183533 82 235 3.0 14.0 0.00 0.00 0.00 40 1006.6
20260505183043 82 221 5.0 15.0 0.00 0.00 0.00 37 1006.6
20260505182535 82 215 5.0 15.0 0.00 0.00 0.00 39 1006.8
20260505182038 82 247 4.0 14.0 0.00 0.00 0.00 37 1006.7
20260505181551 83 233 4.0 14.0 0.00 0.00 0.00 37 1006.9
20260505181036 83 246 3.0 11.0 0.00 0.00 0.00 38 1007.1
20260505180534 82 269 4.0 11.0 0.00 0.00 0.00 39 1007.2
20260505180049 81 198 5.0 10.0 0.00 0.00 0.00 39 1007.1
20260505175534 82 267 2.0 14.0 0.00 0.00 0.00 41 1007.2
20260505175034 82 296 3.0 14.0 0.00 0.00 0.00 39 1007.3
20260505174545 81 217 6.0 14.0 0.00 0.00 0.00 38 1007.3
20260505174036 81 214 4.0 12.0 0.00 0.00 0.00 44 1007.2
20260505173535 81 194 3.0 17.0 0.00 0.00 0.00 40 1007.4
20260505173055 82 163 4.0 17.0 0.00 0.00 0.00 40 1007.4
20260505172535 81 221 5.0 15.0 0.00 0.00 0.00 39 1007.3
20260505172035 82 238 4.0 10.0 0.00 0.00 0.00 39 1007.4
20260505171554 82 243 4.0 14.0 0.00 0.00 0.00 41 1007.4
20260505171035 81 194 2.0 22.0 0.00 0.00 0.00 40 1007.4
20260505170535 81 196 5.0 22.0 0.00 0.00 0.00 39 1007.4
20260505170052 81 188 3.0 17.0 0.00 0.00 0.00 42 1007.5
20260505165535 80 266 7.0 17.0 0.00 0.00 0.00 43 1007.7
20260505165035 81 242 5.0 11.0 0.00 0.00 0.00 41 1007.7
20260505164548 81 223 3.0 9.0 0.00 0.00 0.00 40 1007.7
20260505164037 81 229 3.0 16.0 0.00 0.00 0.00 43 1007.8
20260505163536 80 142 3.0 17.0 0.00 0.00 0.00 44 1007.9
20260505163048 79 195 7.0 17.0 0.00 0.00 0.00 44 1008.0
20260505162535 80 193 5.0 13.0 0.00 0.00 0.00 44 1008.1
20260505162035 80 187 3.0 18.0 0.00 0.00 0.00 44 1008.2
20260505161551 79 202 2.0 18.0 0.00 0.00 0.00 46 1008.3
20260505161035 78 194 6.0 18.0 0.00 0.00 0.00 46 1008.3
20260505160538 78 235 3.0 10.0 0.00 0.00 0.00 44 1008.4